BEIDOU-2 G4

Last updated on Sun Apr 12 2026 00:02:52 GMT+0000 (Coordinated Universal Time)

1 37210U 10057A 26101.48107514 -.00000108 00000+0 00000+0 0 9994 2 37210 3.4807 69.3129 0006742 215.6612 247.9141 1.00271620 56625
UTC large
Height (km)
Speed (km/s)
/
Latitude / Longitude
Inclination (degrees)
Orbital Period (minutes)
Azimuth
Elevation
Range (km)
Doppler Factor

Next 0 passes for location: London (51.5072 / 0.1276)

Sorry there are no passes over London.
BEIDOU-2 G4